User: anonymous
Location: Caltech
(34.1382°N, 118.1253°W)
Time: 06:45:44
(UTC-07:00)
Language:

CZ-2C R/B - Orbit

View from above orbital plane
View from above orbital plane
View from above satellite
View from above satellite

Ground track
Ground track

The orbit data is extracted from the following two-line orbital elements,

1 28480U 04046B   14243.47542416  .00000087  00000-0  48538-4 0  4175
2 28480 098.0998 033.6941 0142234 359.7326 035.2958 14.25324979508814
Epoch (UTC): 31 August 2014 11:24:36
Eccentricity: 0.0142234
inclination: 98.0998°
perigee height: 705 km
apogee height: 909 km
right ascension of ascending node: 33.6941°
argument of perigee: 359.7326°
revolutions per day: 14.25324979
mean anomaly at epoch: 35.2958°
orbit number at epoch: 50881

The dashed part of the orbit path shows where the satellite is in the earth's shadow,  

DLR